Weather History for KOLY - February, 2012

Change the Weather History Date:

Wednesday, February 8, 2012

  Actual Average (KEVV) Record (KEVV)
Temperature  
Mean Temperature 35 °F 35 °F  
Max Temperature 37 °F 44 °F 72 °F (1925)
Min Temperature 33 °F 26 °F -5 °F (1985)
Degree Days  
Heating Degree Days 30 30  
Month to date heating degree days 248  
Since 1 July heating degree days 3027  
Cooling Degree Days 0 0  
Month to date cooling degree days 0  
Year to date cooling degree days 0  
Moisture  
Dew Point 31 °F    
Average Humidity 86    
Maximum Humidity 100    
Minimum Humidity 75    
Precipitation  
Precipitation 0.00 in 0.11 in 1.63 in (1950)
Month to date precipitation 0.94  
Year to date precipitation 4.04  
Snow  
Snow 0.00 in 0.20 in 2.80 in (1979)
Month to date snowfall 1.2  
Since 1 July snowfall 8.1  
Snow Depth -    
Sea Level Pressure  
Sea Level Pressure 30.34 in    
Wind  
Wind Speed 8 mph (NNW)    
Max Wind Speed 13 mph    
Max Gust Speed 17 mph    
Visibility 8 miles    
Events Rain , Snow    
T = Trace of Precipitation, MM = Missing Value Source: NWS Daily Summary

Daily Weather History Graph

Daily Weather History Graph

Search for Another Location

Airport or City:

Trip Planner

Search our weather history database for the weather conditions in past years. The results will help you decide how hot, cold, wet, or windy it might be!

Date:

Astronomy

Feb. 08, 2012 Rise Set
Actual Time 6:52 AM CST 5:22 PM CST
Civil Twilight 6:24 AM CST 5:49 PM CST
Nautical Twilight 5:53 AM CST 6:21 PM CST
Astronomical Twilight 5:22 AM CST 6:52 PM CST
Moon 6:39 PM CST (2/8) 6:56 AM CST (2/8)
Length of Visible Light 11h 25m
Length of Day
10h 29m
Full, 99% of the Moon is Illuminated
Feb 8
Full
Feb 14
Last Quarter
Feb 21
New
Feb 29
First Quarter
Mar 8
Full

Hourly Weather History & Observations

Time (CST) Temp. Windchill Dew Point Humidity Pressure Visibility Wind Dir Wind Speed Gust Speed Precip Events Conditions
12:15 AM 35.6 °F 30.7 °F 30.2 °F 81% 30.30 in 7.0 mi North 5.8 mph - N/A   Overcast
12:35 AM 35.6 °F 31.7 °F 30.2 °F 81% 30.31 in 7.0 mi North 4.6 mph - N/A   Overcast
12:55 AM 35.6 °F 31.7 °F 30.2 °F 81% 30.30 in 7.0 mi North 4.6 mph - N/A   Overcast
1:15 AM 35.6 °F 29.9 °F 30.2 °F 81% 30.30 in 5.0 mi North 6.9 mph - N/A   Haze
1:35 AM 35.6 °F 29.9 °F 32.0 °F 87% 30.31 in 5.0 mi North 6.9 mph - N/A   Overcast
1:55 AM 35.6 °F 30.7 °F 30.2 °F 81% 30.30 in 5.0 mi North 5.8 mph - N/A   Scattered Clouds
2:15 AM 35.6 °F 31.7 °F 32.0 °F 87% 30.30 in 5.0 mi North 4.6 mph - N/A   Scattered Clouds
2:35 AM 35.6 °F 31.7 °F 32.0 °F 87% 30.30 in 4.0 mi North 4.6 mph - N/A   Scattered Clouds
2:55 AM 35.6 °F 29.9 °F 32.0 °F 87% 30.30 in 4.0 mi NNW 6.9 mph - N/A Rain Light Rain
3:15 AM 35.6 °F 29.9 °F 33.8 °F 93% 30.31 in 3.0 mi North 6.9 mph - N/A Snow Light Snow
3:35 AM 35.6 °F 29.9 °F 35.6 °F 100% 30.30 in 2.5 mi North 6.9 mph - N/A Rain Light Rain
3:55 AM 33.8 °F 28.6 °F 33.8 °F 100% 30.31 in 3.0 mi NNW 5.8 mph - N/A Rain Light Rain
4:15 AM 33.8 °F 28.6 °F 33.8 °F 100% 30.31 in 2.5 mi NNW 5.8 mph - N/A Rain Light Rain
4:35 AM 33.8 °F 28.6 °F 33.8 °F 100% 30.31 in 3.0 mi NNW 5.8 mph - N/A Rain Light Rain
4:55 AM 33.8 °F 27.0 °F 33.8 °F 100% 30.31 in 4.0 mi NNW 8.1 mph - N/A Rain Light Rain
5:15 AM 33.8 °F 29.6 °F 33.8 °F 100% 30.32 in 5.0 mi NNW 4.6 mph - N/A Rain Rain
5:35 AM 33.8 °F 25.8 °F 33.8 °F 100% 30.32 in 7.0 mi NNW 10.4 mph - N/A   Overcast
5:55 AM 33.8 °F 25.8 °F 33.8 °F 100% 30.32 in 7.0 mi NNW 10.4 mph - N/A   Overcast
6:15 AM 33.8 °F 27.0 °F 33.8 °F 100% 30.33 in 7.0 mi NNW 8.1 mph - N/A   Overcast
6:35 AM 33.8 °F 24.8 °F 33.8 °F 100% 30.33 in 7.0 mi NNW 12.7 mph - N/A   Overcast
6:55 AM 33.8 °F 25.8 °F 32.0 °F 93% 30.34 in 10.0 mi North 10.4 mph - N/A   Overcast
7:15 AM 33.8 °F 26.4 °F 33.8 °F 100% 30.35 in 7.0 mi NNW 9.2 mph - N/A   Overcast
7:35 AM 33.8 °F 27.0 °F 33.8 °F 100% 30.35 in 7.0 mi North 8.1 mph - N/A   Overcast
7:55 AM 33.8 °F 28.6 °F 32.0 °F 93% 30.36 in 7.0 mi NNW 5.8 mph - N/A   Overcast
8:15 AM 33.8 °F 25.8 °F 32.0 °F 93% 30.35 in 7.0 mi NNW 10.4 mph - N/A   Overcast
8:35 AM 33.8 °F 25.8 °F 32.0 °F 93% 30.36 in 10.0 mi NW 10.4 mph - N/A   Overcast
8:55 AM 33.8 °F 25.3 °F 32.0 °F 93% 30.37 in 7.0 mi NNW 11.5 mph - N/A   Overcast
9:15 AM 33.8 °F 25.3 °F 32.0 °F 93% 30.37 in 10.0 mi NNW 11.5 mph - N/A   Overcast
9:35 AM 33.8 °F 25.3 °F 32.0 °F 93% 30.38 in 10.0 mi NNW 11.5 mph - N/A   Overcast
9:55 AM 35.6 °F 28.0 °F 32.0 °F 87% 30.38 in 10.0 mi NW 10.4 mph - N/A   Overcast
10:15 AM 35.6 °F 27.5 °F 30.2 °F 81% 30.38 in 10.0 mi NW 11.5 mph - N/A   Overcast
10:35 AM 35.6 °F 27.1 °F 30.2 °F 81% 30.38 in 10.0 mi NW 12.7 mph - N/A   Overcast
10:55 AM 35.6 °F 27.5 °F 30.2 °F 81% 30.39 in 10.0 mi NW 11.5 mph - N/A   Overcast
11:15 AM 35.6 °F 27.1 °F 30.2 °F 81% 30.38 in 10.0 mi NW 12.7 mph 17.3 mph N/A   Overcast
11:35 AM 35.6 °F 27.1 °F 30.2 °F 81% 30.38 in 10.0 mi NW 12.7 mph - N/A   Overcast
11:55 AM 35.6 °F 27.1 °F 30.2 °F 81% 30.37 in 10.0 mi NW 12.7 mph - N/A   Overcast
12:15 PM 35.6 °F 27.5 °F 30.2 °F 81% 30.37 in 10.0 mi NNW 11.5 mph - N/A   Overcast
12:35 PM 35.6 °F 28.6 °F 30.2 °F 81% 30.37 in 10.0 mi NW 9.2 mph - N/A   Overcast
12:55 PM 35.6 °F 28.0 °F 30.2 °F 81% 30.36 in 10.0 mi NW 10.4 mph - N/A   Overcast
1:15 PM 37.4 °F 30.3 °F 30.2 °F 75% 30.36 in 10.0 mi NW 10.4 mph - N/A   Overcast
1:35 PM 37.4 °F 30.3 °F 30.2 °F 75% 30.35 in 10.0 mi NW 10.4 mph - N/A   Overcast
1:55 PM 35.6 °F 28.6 °F 30.2 °F 81% 30.35 in 10.0 mi NW 9.2 mph - N/A   Overcast
2:15 PM 35.6 °F 27.5 °F 30.2 °F 81% 30.35 in 10.0 mi NW 11.5 mph - N/A   Overcast
2:35 PM 35.6 °F 28.0 °F 30.2 °F 81% 30.35 in 10.0 mi NW 10.4 mph - N/A   Overcast
2:55 PM 35.6 °F 28.6 °F 28.4 °F 75% 30.36 in 10.0 mi NW 9.2 mph - N/A   Overcast
3:15 PM 35.6 °F 28.6 °F 28.4 °F 75% 30.36 in 7.0 mi NNW 9.2 mph - N/A   Overcast
3:35 PM 35.6 °F 28.0 °F 28.4 °F 75% 30.36 in 10.0 mi WNW 10.4 mph - N/A   Overcast
3:55 PM 35.6 °F 29.9 °F 28.4 °F 75% 30.36 in 10.0 mi NW 6.9 mph - N/A   Overcast
4:15 PM 35.6 °F 28.0 °F 28.4 °F 75% 30.36 in 10.0 mi WNW 10.4 mph - N/A   Overcast
4:35 PM 35.6 °F 28.6 °F 28.4 °F 75% 30.36 in 10.0 mi WNW 9.2 mph - N/A   Overcast
4:55 PM 33.8 °F 25.8 °F 26.6 °F 75% 30.36 in 10.0 mi WNW 10.4 mph - N/A   Overcast
5:15 PM 33.8 °F 26.4 °F 26.6 °F 75% 30.36 in 10.0 mi WNW 9.2 mph - N/A   Overcast
5:35 PM 33.8 °F 27.0 °F 26.6 °F 75% 30.37 in 10.0 mi WNW 8.1 mph - N/A   Overcast
5:55 PM 33.8 °F 27.0 °F 26.6 °F 75% 30.37 in 10.0 mi WNW 8.1 mph - N/A   Overcast
6:15 PM 33.8 °F 28.6 °F 26.6 °F 75% 30.37 in 10.0 mi WNW 5.8 mph - N/A   Overcast
6:35 PM 33.8 °F 27.7 °F 26.6 °F 75% 30.37 in 10.0 mi West 6.9 mph - N/A   Overcast
6:55 PM 33.8 °F 27.0 °F 26.6 °F 75% 30.37 in 10.0 mi WNW 8.1 mph - N/A   Overcast
7:15 PM 33.8 °F 27.0 °F 26.6 °F 75% 30.37 in 10.0 mi West 8.1 mph - N/A   Overcast
7:35 PM 33.8 °F 27.7 °F 26.6 °F 75% 30.38 in 10.0 mi West 6.9 mph - N/A   Overcast
7:55 PM 33.8 °F 27.0 °F 26.6 °F 75% 30.38 in 10.0 mi West 8.1 mph - N/A   Overcast
8:15 PM 33.8 °F 27.0 °F 26.6 °F 75% 30.37 in 10.0 mi West 8.1 mph - N/A   Overcast
8:35 PM 33.8 °F 27.7 °F 26.6 °F 75% 30.38 in 10.0 mi WNW 6.9 mph - N/A   Overcast
8:55 PM 33.8 °F 27.7 °F 26.6 °F 75% 30.38 in 10.0 mi WNW 6.9 mph - N/A   Overcast
9:15 PM 33.8 °F 27.0 °F 26.6 °F 75% 30.38 in 10.0 mi WNW 8.1 mph - N/A   Overcast
9:35 PM 32.0 °F 24.2 °F 24.8 °F 75% 30.38 in 10.0 mi WNW 9.2 mph - N/A   Overcast
9:55 PM 32.0 °F 24.2 °F 24.8 °F 75% 30.38 in 10.0 mi WNW 9.2 mph - N/A   Overcast
10:15 PM 32.0 °F 23.6 °F 24.8 °F 75% 30.38 in 10.0 mi WNW 10.4 mph - N/A   Overcast
10:35 PM 32.0 °F 24.2 °F 24.8 °F 75% 30.38 in 10.0 mi WNW 9.2 mph - N/A   Overcast
10:55 PM 32.0 °F 25.6 °F 24.8 °F 75% 30.37 in 10.0 mi NW 6.9 mph - N/A   Overcast
11:15 PM 32.0 °F 25.6 °F 24.8 °F 75% 30.38 in 10.0 mi NW 6.9 mph - N/A   Overcast
11:35 PM 32.0 °F 23.0 °F 23.0 °F 69% 30.37 in 10.0 mi WNW 11.5 mph - N/A   Overcast
11:55 PM 32.0 °F 24.2 °F 23.0 °F 69% 30.37 in 10.0 mi WNW 9.2 mph - N/A   Overcast